Blytheville Muni Airport, AR

1:08 AM CST on December 12, 2017 (GMT -0600)
Blytheville Municipal

Weather History for KHKA - June, 2013

Change the Weather History Date:

Wednesday, June 12, 2013

  Actual Average Record
Temperature  
Mean Temperature 86 °F -  
Max Temperature 97 °F 89 °F 102 °F (1977)
Min Temperature 75 °F 68 °F 53 °F (1988)
Cooling Degree Days 20    
Growing Degree Days 36 (Base 50)    
Moisture  
Dew Point 71 °F    
Average Humidity 62    
Maximum Humidity 90    
Minimum Humidity 38    
Precipitation  
Precipitation 0.00 in - - ()
Sea Level Pressure  
Sea Level Pressure 29.96 in    
Wind  
Wind Speed 11 mph (SW)    
Max Wind Speed 22 mph    
Max Gust Speed 29 mph    
Visibility 10 miles    
Events      
Averages and records for this station are not official NWS values.
T = Trace of Precipitation, MM = Missing Value Source: NWS Daily Summary

Daily Weather History Graph

Daily Weather History Graph

Search for Another Location

Airport or City:

Trip Planner

Search our weather history database for the weather conditions in past years. The results will help you decide how hot, cold, wet, or windy it might be!

Date:

Astronomy

Jun. 12, 2013 Rise Set
Actual Time 5:42 AM CDT 8:16 PM CDT
Civil Twilight 5:12 AM CDT 8:46 PM CDT
Nautical Twilight 4:34 AM CDT 9:24 PM CDT
Astronomical Twilight 3:53 AM CDT 10:05 PM CDT
Moon 9:16 AM CDT 10:58 PM CDT
Length of Visible Light 15h 34m
Length of Day
14h 34m
Waxing Crescent, 14% of the Moon is Illuminated
Jun 12
Waxing Crescent
Jun 16
First Quarter
Jun 23
Full
Jun 29
Last Quarter
Jul 8
New

Hourly Weather History & Observations

Time (CDT) Temp. Heat Index Dew Point Humidity Pressure Visibility Wind Dir Wind Speed Gust Speed Precip Events Conditions
12:53 AM 79.0 °F - 71.1 °F 77% 29.96 in 10.0 mi SSW 8.1 mph - N/A   Clear
1:53 AM 79.0 °F - 71.1 °F 77% 29.95 in 10.0 mi SW 8.1 mph - N/A   Clear
2:53 AM 78.1 °F - 71.1 °F 79% 29.96 in 10.0 mi SSW 6.9 mph - N/A   Clear
3:53 AM 75.0 °F - 71.1 °F 87% 29.96 in 10.0 mi SSW 6.9 mph - N/A   Clear
4:53 AM 75.0 °F - 72.0 °F 90% 29.97 in 10.0 mi SSW 6.9 mph - N/A   Clear
5:53 AM 75.0 °F - 72.0 °F 90% 29.99 in 10.0 mi SSW 8.1 mph - N/A   Clear
6:53 AM 78.1 °F - 72.0 °F 81% 30.00 in 10.0 mi SW 10.4 mph - N/A   Clear
7:53 AM 82.0 °F 87.4 °F 73.0 °F 74% 30.01 in 10.0 mi SW 9.2 mph - N/A   Clear
8:34 AM 84.2 °F 90.9 °F 73.4 °F 70% 30.03 in 2.5 mi WSW 13.8 mph 18.4 mph N/A   Haze
8:43 AM 84.2 °F 90.9 °F 73.4 °F 70% 30.03 in 10.0 mi WSW 9.2 mph - N/A   Clear
8:53 AM 84.9 °F 91.4 °F 73.0 °F 67% 30.03 in 10.0 mi WSW 10.4 mph 18.4 mph N/A   Clear
9:53 AM 89.1 °F 98.0 °F 73.9 °F 61% 30.03 in 10.0 mi WSW 12.7 mph 23.0 mph N/A   Clear
10:53 AM 90.0 °F 97.9 °F 73.0 °F 57% 30.02 in 10.0 mi WSW 12.7 mph 19.6 mph N/A   Clear
11:53 AM 91.9 °F 97.4 °F 70.0 °F 48% 30.01 in 10.0 mi WSW 13.8 mph 25.3 mph N/A   Clear
12:53 PM 93.9 °F 97.5 °F 66.9 °F 41% 29.99 in 10.0 mi WSW 17.3 mph 25.3 mph N/A   Clear
1:53 PM 95.0 °F 99.5 °F 68.0 °F 41% 29.97 in 10.0 mi WSW 15.0 mph 24.2 mph N/A   Clear
2:53 PM 96.1 °F 101.6 °F 69.1 °F 41% 29.94 in 10.0 mi SW 19.6 mph 26.5 mph N/A   Clear
3:53 PM 95.0 °F 99.5 °F 68.0 °F 41% 29.92 in 10.0 mi SW 16.1 mph 25.3 mph N/A   Partly Cloudy
4:53 PM 96.1 °F 99.9 °F 66.9 °F 38% 29.89 in 10.0 mi SW 21.9 mph 28.8 mph N/A   Clear
5:53 PM 95.0 °F 99.5 °F 68.0 °F 41% 29.87 in 10.0 mi SW 19.6 mph 27.6 mph N/A   Clear
6:53 PM 93.0 °F 97.9 °F 69.1 °F 45% 29.88 in 10.0 mi WSW 16.1 mph 28.8 mph N/A   Clear
7:53 PM 91.0 °F 96.6 °F 70.0 °F 50% 29.88 in 10.0 mi SW 11.5 mph 21.9 mph N/A   Clear
8:53 PM 87.1 °F 92.8 °F 71.1 °F 59% 29.89 in 10.0 mi SW 8.1 mph - N/A   Clear
9:53 PM 84.9 °F 90.1 °F 71.1 °F 63% 29.89 in 10.0 mi SW 10.4 mph - N/A   Clear
10:53 PM 84.0 °F 89.0 °F 71.1 °F 65% 29.89 in 10.0 mi SW 11.5 mph 18.4 mph N/A   Clear
11:53 PM 82.9 °F 88.0 °F 72.0 °F 69% 29.90 in 10.0 mi SW 11.5 mph - N/A   Clear